Voltar ao catálogo

DELTA 1 DEB

AtivoSSO
NORAD 42641·DEBRIS·🇺🇸 United States

Lançado Jun 12, 1975 de Vandenberg Space Force Base

Loading…

Próximas Passagens (próximas 24 horas)

TLE

AtualizadoSource: Space-Track

Época: Sep 14, 2026, 11:17 UTC

1 42641U 75052MA  26257.47064966  .00000140  00000-0  35486-3 0  9994
2 42641  99.7979 340.3764 0059973 254.5747 168.6034 13.35694667624250

Acompanhe DELTA 1 DEB em tempo real com AllMySat

Download on the App Store